Find Starlink 1327

NORAD ID: 45555 Int'l Des: 2020-025 Owner: SPXS Country: US Constellation: starlink operational
LEOCIRCULAR

Live Position

Loading 3D Globe...

About Starlink 1327

Description loading...

Upcoming Passes

Passes for default location (London). Set your location on the main map for personalized predictions.

Altitude History

Loading altitude history...

Two-Line Element Set

1 45555U 20025AA 26104.14446411 .00073180 00000-0 88605-3 0 9990
2 45555 53.0425 254.6336 0004005 216.8340 143.2397 15.60026300331174
Epoch: Apr 14, 2026 • Age: 19 hours

Current Status

Altitude 389.7 km
Velocity 7.68 km/s
Sub-Earth Point -18.32°S, 99.81°W
Launch Date Apr 22, 2020
Age 5.9 years
Type internet

Technical Details

Classification Payload
Mass 260.00 kg
Dry Mass 248.00 kg
Total Mass 260.00 kg
Length 0.20 m
Diameter 2.80 m
Span 9.00 m
Shape Box + pan
Manufacturer SPXS
Bus Type Starlink
Phase Status In Orbit
Owner/State SPXS/US

Most Searched